RH
18 24 28 30 37 39 34 33 38 42 43 43 49 49 51 58 56 52 64 75 75 80 81 84 81 66 69 58 70 82 80 82 67 62 74 75 72 81 71 72 70 81 85 41
11 16 22 24 28 36 39 38 39 36 37 42 45 54 59 63 64 65 67 69 69 73 73 71 69 69 63 66 73 75 68 75 74 72 71 73 78 64 77 73 78 76 80 26
10 10 13 18 18 21 27 32 33 35 33 31 32 36 42 48 51 52 54 60 62 59 52 46 48 50 52 53 54 56 57 52 53 40 47 55 58 40 56 81 82 70 42 14
11 10 10 11 14 14 15 18 18 18 22 22 24 21 24 25 27 30 31 33 34 32 33 31 31 31 30 32 34 34 36 31 28 24 25 33 31 36 48 54 45 64 17 14
16 16 10 11 10 12 12 13 14 13 15 18 16 17 16 17 17 17 19 17 18 18 17 18 18 21 24 26 31 33 32 32 28 18 18 20 21 19 24 36 50 45 32 9
50 16 18 14 10 10 11 12 13 12 12 14 17 19 19 20 21 20 20 21 21 20 19 17 17 18 20 20 26 33 38 36 37 26 21 22 20 15 16 14 12 12 20 6
54 55 31 15 21 13 9 10 12 13 13 15 15 17 18 19 20 20 18 17 17 16 16 16 17 18 19 21 25 29 34 40 45 35 26 36 11 11 10 12 13 14 11 8
48 51 54 50 17 20 25 19 11 9 9 10 12 14 16 15 13 13 16 16 15 14 15 16 15 18 25 31 34 35 36 46 47 46 48 14 11 9 9 11 9 10 10 10
47 48 46 46 55 39 14 16 21 27 27 18 16 10 10 10 10 11 11 11 12 12 14 14 15 16 27 27 28 29 31 39 54 60 56 35 11 11 12 12 11 11 12 16
41 48 48 46 41 45 55 44 28 15 14 18 24 26 26 20 13 12 14 11 14 14 14 15 16 17 20 24 21 19 29 38 42 58 62 15 10 12 15 18 14 17 18 19
48 48 52 49 45 42 41 40 48 52 52 45 20 18 22 20 21 25 23 20 19 16 16 16 16 20 21 19 17 17 18 19 24 55 71 34 11 15 20 23 24 25 26 25
55 56 55 54 48 44 44 46 42 38 35 36 39 44 40 27 17 19 26 28 25 20 18 20 21 22 23 23 25 23 24 19 20 19 14 15 19 23 26 26 30 29 28 30
54 63 64 58 55 53 50 49 46 41 37 34 33 34 36 39 43 40 38 42 33 26 24 29 33 30 27 28 26 29 29 27 27 30 26 32 34 34 33 29 27 28 33 32
56 63 68 64 59 60 58 54 48 44 40 36 34 34 35 33 32 37 40 45 42 30 29 31 35 40 36 32 31 32 32 34 36 39 38 38 32 32 33 32 30 29 32 37
62 63 68 68 65 61 61 60 56 51 44 41 38 33 31 30 30 30 34 41 46 46 38 38 41 41 40 40 44 36 34 40 47 48 44 40 28 26 28 27 26 26 27 27
66 65 67 68 63 58 55 55 50 49 44 40 37 36 34 32 30 32 36 34 40 40 42 43 45 46 48 47 47 41 45 52 49 42 36 30 30 28 26 23 21 21 24 30
67 66 64 61 60 58 55 52 50 51 47 36 36 34 32 33 40 35 34 35 37 43 45 44 45 47 58 53 40 46 58 49 43 39 36 35 32 30 27 22 20 22 28 34
78 75 71 67 64 60 56 51 49 48 44 36 36 35 34 36 36 38 39 44 48 47 47 44 45 49 54 52 49 48 47 42 39 38 35 32 29 24 20 17 16 17 28 38
89 87 82 73 67 63 51 43 39 36 35 35 35 35 37 34 38 47 53 58 59 58 58 58 58 49 45 48 43 44 41 33 26 24 23 21 22 23 22 20 20 19 18 19
90 90 89 76 60 53 43 33 30 31 29 27 24 26 38 38 43 51 61 72 67 71 64 61 55 45 45 44 46 44 42 29 24 21 20 19 20 23 24 25 27 26 25 26
95 91 83 61 40 26 21 19 19 25 26 30 29 29 31 43 49 64 70 72 68 68 69 64 62 44 46 48 54 62 65 64 65 63 60 53 40 29 26 27 31 33 35 38
87 72 52 35 21 18 17 17 20 25 37 49 61 63 67 71 68 70 71 67 65 70 74 67 52 46 48 58 75 77 68 61 64 62 62 62 57 52 50 56 61 48 39 38
31 21 13 14 24 20 13 24 35 57 63 79 81 78 81 83 78 81 70 68 73 74 74 59 43 51 58 76 73 69 70 67 63 61 56 52 47 41 35 33 34 52 60 69
14 8 6 10 22 22 24 18 35 77 88 87 86 91 91 92 84 74 67 79 78 82 77 47 49 57 62 69 73 69 45 39 45 35 42 60 54 38 30 34 38 36 37 64
8 8 11 10 13 15 18 35 64 92 98 97 95 94 92 87 74 65 66 73 76 74 46 52 62 66 72 70 55 41 31 44 69 59 48 44 38 33 30 30 40 52 55 62
9 8 9 9 8 17 40 76 90 100 100 100 97 81 69 60 53 54 47 58 41 22 27 61 66 63 56 45 34 34 24 32 77 74 54 46 42 38 33 33 48 49 54 62
9 7 5 6 6 7 18 28 49 60 59 73 91 98 82 59 62 80 59 24 16 25 39 42 42 37 24 16 19 34 40 49 71 63 64 59 51 37 30 33 54 49 40 37
Wind_Speed
13 13 14 12 14 15 15 16 18 17 15 13 22 21 19 18 15 14 13 11 9 7 7 5 4 5 3 6 8 6 3 2 4 4 4 6 11 8 9 5 4 5 3 11
12 11 10 11 10 8 12 14 15 16 14 15 17 18 16 14 9 7 8 7 7 8 5 3 5 4 6 5 6 7 4 4 2 2 8 13 16 18 16 15 9 12 4 7
7 9 9 8 9 8 7 6 7 9 11 14 14 15 13 12 11 10 10 9 7 5 5 5 5 5 3 4 5 5 5 7 9 7 3 7 11 11 18 20 11 12 29 33
6 5 6 7 7 6 8 7 7 7 7 10 11 11 11 10 10 8 7 7 7 6 5 5 4 2 3 4 5 6 6 7 11 14 17 22 24 23 19 27 31 27 31 33
7 6 5 4 5 7 6 5 5 5 5 6 7 6 8 8 8 7 7 6 6 5 3 2 1 3 4 6 7 9 10 8 14 21 16 21 29 29 31 36 36 41 41 36
10 7 7 6 6 6 6 6 5 5 4 4 3 2 2 3 3 2 2 2 1 1 1 4 6 8 9 10 9 10 11 8 10 6 7 18 21 7 10 24 32 32 39 20
12 9 8 8 6 6 8 8 8 9 8 7 6 5 4 4 3 3 3 3 4 4 7 10 11 10 10 11 13 14 14 11 9 10 12 2 2 14 16 13 11 14 20 17
11 10 9 8 7 7 4 5 8 10 11 12 11 10 9 8 8 8 8 9 8 9 12 11 6 4 3 4 8 11 13 12 6 5 9 19 0 6 7 6 11 5 7 16
11 11 10 9 6 7 6 6 6 6 7 6 9 10 11 12 13 11 10 9 12 13 11 9 3 3 2 2 3 6 8 11 12 5 5 5 3 6 9 11 4 4 17 27
13 12 12 11 8 6 7 6 4 7 9 9 8 8 10 9 8 9 11 10 10 9 6 5 4 3 4 3 4 4 6 9 16 17 10 13 14 9 10 7 8 23 29 32
16 15 13 12 10 9 8 9 9 6 7 9 8 8 8 11 10 10 9 10 6 5 3 3 3 4 4 6 9 7 5 5 6 8 9 7 3 10 16 24 29 32 33 36
16 16 15 14 12 11 11 12 12 12 10 11 12 13 10 10 11 11 10 12 13 7 4 4 5 8 12 14 8 11 9 8 9 10 11 23 31 29 30 32 41 40 38 29
16 16 16 16 15 13 13 13 14 14 13 14 9 11 6 7 9 12 15 14 15 17 16 14 13 13 17 14 15 16 16 17 24 29 16 27 28 24 29 30 30 29 31 34
17 16 17 18 17 18 17 16 15 16 16 14 7 5 15 20 19 15 12 14 16 17 20 23 24 23 18 21 21 26 26 31 30 31 27 26 23 25 29 33 33 34 31 33
17 17 17 18 19 20 21 20 19 18 15 16 16 16 19 15 17 21 22 18 18 17 18 22 27 26 24 28 30 24 11 19 20 28 26 31 32 26 27 31 33 34 37 37
17 18 18 17 17 18 18 20 17 14 15 21 21 17 21 20 20 15 10 11 10 13 18 21 25 23 17 18 25 23 23 21 20 27 26 27 29 30 31 33 33 34 35 35
22 22 22 21 20 20 18 19 22 22 20 19 15 15 13 10 8 9 13 15 18 21 24 27 25 23 22 27 34 29 15 18 21 23 30 29 27 31 31 33 32 32 31 29
25 25 26 26 25 24 25 24 22 23 22 19 10 13 15 16 19 21 22 22 22 20 18 23 24 25 26 16 4 9 23 20 19 24 26 29 27 26 27 28 28 27 26 25
24 24 26 29 27 29 27 25 25 22 21 15 19 19 16 14 13 12 13 17 21 22 21 19 13 15 8 9 18 16 18 18 15 12 16 17 20 20 21 20 22 23 22 21
27 27 27 28 27 25 25 23 22 24 26 29 29 27 26 22 21 20 16 11 7 8 9 6 8 9 6 13 14 8 7 11 13 13 10 11 12 17 19 21 22 23 22 21
29 29 26 25 22 21 22 15 11 10 11 15 17 18 24 23 23 18 8 6 6 5 5 6 5 5 10 10 7 2 4 7 10 13 17 19 22 24 24 22 21 21 21 20
25 24 22 20 17 12 11 9 10 12 10 10 11 12 11 8 9 8 6 7 5 7 5 5 4 8 13 11 8 4 4 11 15 19 20 21 24 27 28 28 26 24 22 23
18 18 16 11 12 16 9 7 7 6 6 7 9 9 9 7 5 5 6 6 7 7 6 5 13 18 17 14 8 10 16 25 26 28 29 28 29 31 36 36 33 31 31 33
17 14 12 9 9 8 12 16 11 10 6 8 10 8 5 6 6 7 5 8 7 7 8 14 13 18 12 9 15 26 36 39 38 40 38 38 41 39 36 37 38 38 36 34
17 10 9 14 13 12 10 13 13 9 10 10 10 11 12 11 9 7 7 6 8 8 8 14 14 12 13 21 32 38 43 42 38 40 40 39 38 39 40 41 40 37 37 40
20 17 9 4 5 12 11 7 8 11 11 12 13 13 12 14 9 15 13 13 14 20 18 17 22 28 35 43 47 50 52 48 44 44 40 38 40 41 45 46 40 36 37 38
18 24 23 24 22 16 11 12 15 15 17 19 16 11 11 11 13 21 22 35 34 32 35 37 40 45 50 48 47 43 44 47 48 49 48 48 48 47 47 50 43 41 39 39
Wind_Direction
21 36 41 41 53 61 65 66 66 65 68 83 83 86 91 92 90 93 106 116 110 96 98 79 62 115 148 169 171 157 156 168 190 172 197 219 218 239 230 220 205 228 251 277
29 22 31 38 39 58 69 69 69 71 66 67 74 82 88 89 88 97 107 126 122 113 85 90 93 114 134 143 150 176 208 210 187 228 245 238 237 236 234 235 252 237 187 258
16 25 19 25 40 36 49 44 82 77 80 80 78 80 82 88 89 92 100 109 110 107 96 99 118 124 154 185 205 219 231 241 235 231 257 266 246 266 242 232 233 243 245 276
338 355 10 13 14 37 39 45 63 84 91 86 88 83 89 91 91 89 89 95 102 106 109 112 125 154 190 222 232 235 247 269 270 273 271 269 266 261 251 240 244 246 275 283
346 321 310 332 351 356 7 12 20 42 62 86 86 82 88 87 87 92 102 98 89 85 82 81 233 254 247 241 231 232 252 271 290 297 284 266 267 264 257 254 255 259 271 288
355 338 312 295 292 310 320 325 328 331 342 352 7 37 60 86 91 84 78 64 32 345 307 307 290 282 270 254 256 260 272 279 303 284 308 298 287 307 283 266 262 268 265 312
356 342 342 303 299 283 285 295 302 308 308 308 309 311 313 315 323 317 317 317 313 314 315 313 298 282 267 258 254 253 261 278 293 289 316 328 263 312 300 299 307 303 300 325
341 349 341 339 319 283 290 291 286 286 294 297 298 301 298 301 315 311 306 311 312 314 316 324 310 276 254 243 249 248 251 263 283 290 301 293 259 16 29 313 335 19 40 340
320 324 333 343 337 332 291 273 283 294 301 319 302 294 286 289 297 297 304 305 307 309 309 312 283 299 296 285 277 243 247 245 239 300 305 265 291 329 335 330 306 315 325 320
308 303 308 315 327 339 321 318 304 292 283 283 277 291 297 295 292 290 297 295 299 296 297 281 265 251 259 265 249 239 226 242 243 245 255 277 289 306 337 334 308 303 302 304
297 291 288 294 300 317 323 321 317 310 308 302 291 285 268 280 281 286 293 303 306 291 273 276 281 273 256 273 263 275 259 263 234 204 228 284 349 306 316 303 294 298 297 294
291 286 285 285 284 288 297 308 314 316 309 300 298 293 285 289 279 276 279 278 278 267 265 273 271 275 282 282 279 284 264 241 270 249 269 282 298 300 299 298 296 293 297 299
288 282 278 284 289 292 294 302 306 305 310 307 296 284 255 306 297 286 281 283 276 260 259 278 291 281 281 275 285 279 282 272 273 294 315 308 301 294 288 285 290 291 293 293
280 276 276 276 282 291 297 300 305 306 307 302 298 225 290 301 296 283 279 271 267 263 257 261 282 285 281 274 278 281 290 292 296 294 310 301 298 299 296 291 290 289 291 289
275 273 269 276 283 288 295 295 292 295 298 289 289 285 293 296 292 287 285 273 263 266 266 271 282 287 288 287 284 294 302 314 298 296 301 298 312 315 306 300 301 296 293 291
266 271 273 271 276 284 289 289 287 289 292 299 305 294 292 284 281 282 294 289 257 255 278 285 284 291 283 282 285 311 307 309 300 306 305 314 320 320 314 310 307 300 297 293
264 264 265 270 275 279 283 284 290 291 291 296 299 294 285 263 237 261 276 271 269 275 279 280 282 289 283 281 295 311 305 307 315 312 311 311 315 315 315 315 315 313 306 298
265 265 268 270 275 279 284 284 282 287 286 287 269 257 258 264 266 265 269 272 274 274 272 274 278 281 284 291 295 304 306 307 310 308 310 315 320 320 320 322 322 325 316 305
268 270 274 272 275 279 280 280 279 275 271 264 262 260 276 273 272 272 270 275 275 275 267 271 273 276 262 285 304 308 311 325 342 338 325 329 335 339 338 341 343 345 341 330
273 278 280 278 279 280 280 275 274 272 264 261 262 266 254 264 269 282 298 284 255 264 266 258 237 268 250 291 299 305 336 8 7 355 331 324 329 340 345 345 347 345 340 336
267 272 270 273 275 277 276 268 242 240 240 250 252 242 250 252 259 265 253 273 285 269 253 240 212 251 259 256 252 274 41 356 351 348 345 342 337 332 332 334 338 342 343 341
259 264 265 266 268 263 250 231 220 226 228 232 221 211 207 212 223 238 250 252 246 253 227 222 237 251 232 223 202 200 286 304 313 320 321 323 328 329 328 326 324 321 320 317
245 249 258 260 246 232 221 229 222 215 224 219 198 194 197 206 218 247 261 248 234 255 243 239 258 231 209 212 248 296 304 310 308 312 310 307 313 315 317 317 316 313 311 307
238 240 236 229 233 224 229 226 224 217 211 200 197 205 220 228 261 251 249 240 244 240 224 239 238 215 220 234 279 295 303 305 303 299 299 301 306 308 311 312 304 300 300 299
228 229 229 233 230 232 238 229 216 208 209 218 235 251 260 257 250 236 234 243 227 219 242 242 214 217 255 276 296 304 304 301 301 303 303 305 306 307 307 308 307 302 296 290
232 226 217 212 221 228 241 227 226 230 238 246 255 264 270 261 236 241 230 236 244 261 264 246 250 270 285 288 291 292 292 289 289 294 297 301 304 307 306 307 307 303 299 295
236 247 250 249 252 246 255 264 263 260 263 264 257 242 235 247 246 238 242 256 280 277 271 271 272 276 278 284 285 286 288 285 285 291 292 291 297 301 300 300 303 297 297 300